ABY1513 OMSJ-LQSA

Flight info

Callsign ABY1513
Flight time N/A
Altitude 36000
Route DAVMO M318 RADEB M317 KEBEP/N0453F380 M317 OTENA L319 BONAM UL124 VAN UT367 LANVO UL852 NEGEM Q8 DOLAP DCT PESAK DCT KEB
Aircraft A20N/M-SDE2E3FGHIRWXY/LB1

Departure

Time 2026-04-26 10:33
Airport Sharjah International Airport (OMSJ)

Arrival

Time N/A
Airport Sarajevo International Airport (LQSA)
Time Latitude Longitude Altitude Speed Heading
2026-04-26 10:01 25.32252 55.52136 115 ft 0 kts 212°
2026-04-26 10:22 25.32254 55.52137 114 ft 1 kts 213°
2026-04-26 10:22 25.32258 55.52140 114 ft 1 kts 213°
2026-04-26 10:22 25.32263 55.52144 114 ft 1 kts 213°
2026-04-26 10:23 25.32267 55.52147 111 ft 1 kts 213°
2026-04-26 10:23 25.32272 55.52150 111 ft 1 kts 213°
2026-04-26 10:23 25.32277 55.52153 111 ft 1 kts 213°
2026-04-26 10:23 25.32277 55.52154 116 ft 0 kts 213°
2026-04-26 10:24 25.32283 55.52158 114 ft 3 kts 213°
2026-04-26 10:24 25.32302 55.52172 115 ft 3 kts 213°
2026-04-26 10:25 25.32321 55.52184 113 ft 3 kts 208°
2026-04-26 10:25 25.32341 55.52195 113 ft 3 kts 202°
2026-04-26 10:25 25.32362 55.52203 115 ft 3 kts 182°
2026-04-26 10:25 25.32385 55.52198 113 ft 5 kts 147°
2026-04-26 10:26 25.32386 55.52197 113 ft 0 kts 144°
2026-04-26 10:26 25.32384 55.52198 113 ft 1 kts 146°
2026-04-26 10:26 25.32373 55.52208 113 ft 3 kts 134°
2026-04-26 10:27 25.32357 55.52236 114 ft 7 kts 115°
2026-04-26 10:27 25.32323 55.52314 115 ft 17 kts 121°
2026-04-26 10:27 25.32231 55.52475 116 ft 32 kts 121°
2026-04-26 10:27 25.32093 55.52717 116 ft 41 kts 122°
2026-04-26 10:28 25.31931 55.52992 115 ft 45 kts 125°
2026-04-26 10:28 25.31792 55.53299 117 ft 44 kts 90°
2026-04-26 10:28 25.31973 55.53477 118 ft 19 kts 26°
2026-04-26 10:28 25.31986 55.53483 119 ft 0 kts 20°
2026-04-26 10:31 25.31988 55.53484 119 ft 3 kts 22°
2026-04-26 10:31 25.32027 55.53504 120 ft 9 kts 25°
2026-04-26 10:31 25.32105 55.53518 116 ft 14 kts 317°
2026-04-26 10:31 25.32156 55.53407 119 ft 17 kts 298°
2026-04-26 10:32 25.32162 55.53395 120 ft 0 kts 298°
2026-04-26 10:33 25.32285 55.53181 118 ft 71 kts 302°
2026-04-26 10:33 25.32674 55.52499 116 ft 135 kts 303°
2026-04-26 10:33 25.33276 55.51474 234 ft 174 kts 302°
2026-04-26 10:33 25.33977 55.50345 734 ft 188 kts 303°
2026-04-26 10:34 25.34738 55.49075 1205 ft 206 kts 301°
2026-04-26 10:34 25.35497 55.47721 2163 ft 206 kts 302°
2026-04-26 10:34 25.36240 55.46360 3148 ft 208 kts 301°
2026-04-26 10:34 25.36994 55.44958 3979 ft 215 kts 303°
2026-04-26 10:35 25.37808 55.43539 4841 ft 222 kts 303°
2026-04-26 10:35 25.38653 55.42106 5796 ft 219 kts 303°
2026-04-26 10:35 25.39604 55.40806 6857 ft 213 kts 320°
2026-04-26 10:35 25.40904 55.40085 7800 ft 210 kts 348°
2026-04-26 10:36 25.42348 55.40112 8637 ft 208 kts 10°
2026-04-26 10:36 25.43753 55.40444 9391 ft 205 kts
2026-04-26 10:36 25.45168 55.40752 9919 ft 215 kts
2026-04-26 10:36 25.46512 55.41036 10868 ft 186 kts
2026-04-26 10:37 25.47714 55.41316 11629 ft 170 kts
2026-04-26 10:37 25.48909 55.41623 11869 ft 190 kts 11°
2026-04-26 10:37 25.50288 55.41989 11882 ft 221 kts 10°
2026-04-26 10:37 25.51862 55.42392 12059 ft 239 kts 11°
2026-04-26 10:38 25.53469 55.42739 12762 ft 232 kts
2026-04-26 10:38 25.55040 55.42978 13525 ft 226 kts
2026-04-26 10:38 25.56762 55.43251 12628 ft 291 kts
2026-04-26 10:38 25.58952 55.43609 12611 ft 315 kts
2026-04-26 10:39 25.61151 55.43977 13086 ft 334 kts
2026-04-26 10:39 25.63513 55.44445 13428 ft 344 kts
2026-04-26 10:39 25.65745 55.45137 14482 ft 325 kts 21°
2026-04-26 10:39 25.67702 55.46281 15399 ft 310 kts 33°
2026-04-26 10:40 25.69373 55.47769 15907 ft 309 kts 43°
2026-04-26 10:40 25.70934 55.49420 15878 ft 310 kts 43°
2026-04-26 10:40 25.72503 55.51084 15621 ft 312 kts 43°
2026-04-26 10:40 25.74080 55.52751 15170 ft 316 kts 43°
2026-04-26 10:41 25.75670 55.54425 14607 ft 323 kts 43°
2026-04-26 10:41 25.77319 55.56158 13997 ft 331 kts 43°
2026-04-26 10:41 25.79008 55.57930 13345 ft 338 kts 43°
2026-04-26 10:41 25.80734 55.59743 12643 ft 347 kts 43°
2026-04-26 10:42 25.82556 55.61656 11953 ft 370 kts 43°
2026-04-26 10:42 25.84437 55.63633 11343 ft 373 kts 43°
2026-04-26 10:42 25.86409 55.65454 11046 ft 363 kts 33°
2026-04-26 10:42 25.88477 55.66919 11169 ft 344 kts 31°
2026-04-26 10:43 25.90442 55.68301 11591 ft 325 kts 31°
2026-04-26 10:43 25.92303 55.69622 12316 ft 309 kts 31°
2026-04-26 10:43 25.94065 55.70872 13375 ft 292 kts 31°
2026-04-26 10:43 25.95739 55.72057 14260 ft 282 kts 31°
2026-04-26 10:44 25.97410 55.73238 14718 ft 287 kts 31°
2026-04-26 10:44 25.99102 55.74431 15197 ft 289 kts 31°
2026-04-26 10:44 26.00810 55.75637 15677 ft 292 kts 31°
2026-04-26 10:44 26.02265 55.76666 16072 ft 295 kts 31°
2026-04-26 10:45 26.04005 55.77896 16527 ft 298 kts 31°
2026-04-26 10:45 26.05779 55.79104 16977 ft 300 kts 23°
2026-04-26 10:45 26.07775 55.79734 17379 ft 299 kts
2026-04-26 10:45 26.09853 55.79645 17786 ft 300 kts 352°
2026-04-26 10:46 26.11942 55.79461 18230 ft 302 kts 352°
2026-04-26 10:46 26.14046 55.79286 18626 ft 304 kts 352°
2026-04-26 10:46 26.16133 55.79118 19038 ft 305 kts 352°
2026-04-26 10:46 26.18237 55.78870 19424 ft 303 kts 340°
2026-04-26 10:47 26.20096 55.77882 19759 ft 295 kts 315°
2026-04-26 10:47 26.21442 55.76253 20110 ft 291 kts 304°
2026-04-26 10:47 26.22693 55.74478 20524 ft 291 kts 303°
2026-04-26 10:47 26.23941 55.72697 20924 ft 292 kts 303°
2026-04-26 10:48 26.25203 55.70914 21325 ft 293 kts 304°
2026-04-26 10:48 26.26478 55.69135 21716 ft 295 kts 304°
2026-04-26 10:48 26.26674 55.68862 21775 ft 295 kts 304°
2026-04-26 10:57 26.27344 55.67931 21956 ft 296 kts 304°
2026-04-26 10:57 26.27466 55.67762 21982 ft 297 kts 304°